Weather History for St. Petersburg Airport, FL

Change the Weather History Date:

Saturday, March 30, 2013

  Actual Average Record
Temperature  
Mean Temperature 64 °F -  
Max Temperature 77 °F 79 °F 86 °F (1961)
Min Temperature 52 °F 64 °F 47 °F (1955)
Degree Days  
Heating Degree Days 2    
Growing Degree Days 14 (Base 50)    
Moisture  
Dew Point 49 °F    
Average Humidity 59    
Maximum Humidity 86    
Minimum Humidity 33    
Precipitation  
Precipitation 0.00 in - - ()
Sea Level Pressure  
Sea Level Pressure 30.22 in    
Wind  
Wind Speed 7 mph (South)    
Max Wind Speed 14 mph    
Max Gust Speed 23 mph    
Visibility 10 miles    
Events      
Averages and records for this station are not official NWS values.
T = Trace of Precipitation, MM = Missing Value Source: NWS Daily Summary

Daily Weather History Graph

Daily Weather History Graph

Search for Another Location

Airport:

Trip Planner

Search our weather history database for the weather conditions in past years. The results will help you decide how hot, cold, wet, or windy it might be!

Date:

Astronomy

Mar. 30, 2013 Rise Set
Actual Time 7:23 AM EDT 7:47 PM EDT
Civil Twilight 6:59 AM EDT 8:11 PM EDT
Nautical Twilight 6:32 AM EDT 8:38 PM EDT
Astronomical Twilight 6:04 AM EDT 9:06 PM EDT
Moon 11:31 PM EDT (3/30) 9:36 AM EDT (3/30)
Length of Visible Light 13h 11m
Length of Day
12h 24m
Waning Gibbous, 86% of the Moon is Illuminated
Mar 30
Waning Gibbous
Apr 3
Last Quarter
Apr 10
New
Apr 18
First Quarter
Apr 25
Full

Hourly Weather History & Observations

Time (EDT) Temp. Dew Point Humidity Pressure Visibility Wind Dir Wind Speed Gust Speed Precip Events Conditions
12:53 AM 60.1 °F 52.0 °F 75% 30.27 in 10.0 mi ENE 8.1 mph - N/A   Clear
1:53 AM 59.0 °F 48.0 °F 67% 30.27 in 8.0 mi East 4.6 mph - N/A   Clear
2:53 AM 55.9 °F 46.9 °F 72% 30.26 in 10.0 mi NE 3.5 mph - N/A   Clear
3:53 AM 59.0 °F 46.0 °F 62% 30.24 in 10.0 mi NE 6.9 mph - N/A   Clear
4:53 AM 57.9 °F 46.9 °F 67% 30.23 in 9.0 mi NE 4.6 mph - N/A   Clear
5:53 AM 57.0 °F 48.9 °F 74% 30.23 in 9.0 mi Calm Calm - N/A   Clear
6:53 AM 52.0 °F 48.0 °F 86% 30.24 in 9.0 mi Calm Calm - N/A   Clear
7:53 AM 55.9 °F 48.9 °F 77% 30.25 in 10.0 mi East 4.6 mph - N/A   Clear
8:53 AM 62.1 °F 51.1 °F 67% 30.26 in 10.0 mi ESE 6.9 mph - N/A   Clear
9:53 AM 66.0 °F 52.0 °F 60% 30.27 in 10.0 mi ESE 6.9 mph - N/A   Clear
10:53 AM 70.0 °F 52.0 °F 53% 30.27 in 10.0 mi South 12.7 mph - N/A   Clear
11:53 AM 72.0 °F 51.1 °F 48% 30.26 in 10.0 mi South 9.2 mph - N/A   Clear
12:53 PM 75.0 °F 48.9 °F 40% 30.25 in 10.0 mi South 10.4 mph - N/A   Clear
1:53 PM 75.0 °F 45.0 °F 34% 30.22 in 10.0 mi SW 13.8 mph - N/A   Clear
2:53 PM 75.9 °F 46.9 °F 36% 30.20 in 10.0 mi SW 13.8 mph 19.6 mph N/A   Clear
3:53 PM 75.0 °F 46.9 °F 37% 30.19 in 10.0 mi SSW 13.8 mph 23.0 mph N/A   Clear
4:53 PM 75.0 °F 44.1 °F 33% 30.17 in 10.0 mi SW 10.4 mph 18.4 mph N/A   Clear
5:53 PM 73.9 °F 45.0 °F 35% 30.16 in 10.0 mi SW 10.4 mph - N/A   Clear
6:53 PM 71.1 °F 48.9 °F 45% 30.17 in 10.0 mi WSW 9.2 mph - N/A   Clear
7:53 PM 66.9 °F 50.0 °F 54% 30.17 in 10.0 mi WSW 8.1 mph - N/A   Clear
8:53 PM 64.9 °F 52.0 °F 63% 30.18 in 10.0 mi West 5.8 mph - N/A   Clear
9:53 PM 62.1 °F 53.1 °F 72% 30.19 in 10.0 mi Calm Calm - N/A   Clear
10:53 PM 61.0 °F 53.1 °F 75% 30.19 in 10.0 mi Calm Calm - N/A   Clear
11:53 PM 60.1 °F 54.0 °F 80% 30.19 in 10.0 mi Calm Calm - N/A   Clear